Weather History for KFVE - November, 2012

Change the Weather History Date:

Friday, November 23, 2012

  Actual Average Record
Temperature  
Mean Temperature 38 °F 27 °F  
Max Temperature 44 °F 33 °F 52 °F (1999)
Min Temperature 32 °F 21 °F 6 °F (1997)
Degree Days  
Heating Degree Days 27    
Month to date heating degree days 736  
Since 1 July heating degree days 1699  
Cooling Degree Days 0    
Month to date cooling degree days 0  
Year to date cooling degree days 203  
Moisture  
Dew Point 33 °F    
Average Humidity 82    
Maximum Humidity 89    
Minimum Humidity 68    
Precipitation  
Precipitation 0.00 in 0.10 in 0.24 in (2010)
Month to date precipitation 0.42 2.24  
Year to date precipitation 30.08 30.36  
Sea Level Pressure  
Sea Level Pressure 29.76 in    
Wind  
Wind Speed 10 mph (SSE)    
Max Wind Speed 17 mph    
Max Gust Speed 21 mph    
Visibility 10 miles    
Events      
T = Trace of Precipitation, MM = Missing Value Source: NWS Daily Summary

Daily Weather History Graph

Daily Weather History Graph

Search for Another Location

Airport or City:

Trip Planner

Search our weather history database for the weather conditions in past years. The results will help you decide how hot, cold, wet, or windy it might be!

Date:

Astronomy

Nov. 23, 2012 Rise Set
Actual Time 6:49 AM EST 3:49 PM EST
Civil Twilight 6:15 AM EST 4:23 PM EST
Nautical Twilight 5:37 AM EST 5:01 PM EST
Astronomical Twilight 5:00 AM EST 5:38 PM EST
Moon 1:17 PM EST (11/23) 1:48 AM EST (11/23)
Length of Visible Light 10h 08m
Length of Day
9h 00m
Waxing Gibbous, 79% of the Moon is Illuminated
Nov 23
Waxing Gibbous
Nov 28
Full
Dec 6
Last Quarter
Dec 13
New
Dec 20
First Quarter

Hourly Weather History & Observations

Time (EST) Temp. Windchill Dew Point Humidity Pressure Visibility Wind Dir Wind Speed Gust Speed Precip Events Conditions
12:53 AM 34.0 °F 28.0 °F 28.0 °F 79% 29.94 in 10.0 mi South 6.9 mph - N/A   Clear
1:53 AM 34.0 °F 26.6 °F 28.0 °F 79% 29.94 in 10.0 mi South 9.2 mph - N/A   Clear
2:53 AM 34.0 °F 26.6 °F 28.0 °F 79% 29.93 in 10.0 mi SSE 9.2 mph - N/A   Mostly Cloudy
3:53 AM 34.0 °F 25.5 °F 28.0 °F 79% 29.91 in 10.0 mi South 11.5 mph - N/A   Clear
4:53 AM 34.0 °F 27.2 °F 28.0 °F 79% 29.91 in 10.0 mi SSE 8.1 mph - N/A   Clear
5:53 AM 33.1 °F 24.9 °F 28.0 °F 82% 29.91 in 10.0 mi South 10.4 mph - N/A   Clear
6:53 AM 32.0 °F 24.2 °F 28.9 °F 88% 29.90 in 10.0 mi South 9.2 mph - N/A   Clear
7:53 AM 33.1 °F 24.4 °F 28.9 °F 85% 29.89 in 10.0 mi South 11.5 mph - N/A   Clear
8:53 AM 34.0 °F 26.6 °F 30.0 °F 85% 29.88 in 10.0 mi SSE 9.2 mph - N/A   Clear
9:51 AM 35.6 °F 27.5 °F 30.2 °F 81% 29.83 in 10.0 mi SSE 11.5 mph - N/A   Partly Cloudy
9:53 AM 36.0 °F 27.5 °F 30.9 °F 82% 29.86 in 10.0 mi SSE 12.7 mph - N/A   Partly Cloudy
10:53 AM 37.0 °F 29.3 °F 32.0 °F 82% 29.82 in 10.0 mi SSE 11.5 mph 20.7 mph N/A   Clear
11:24 AM 37.4 °F 29.3 °F 32.0 °F 81% 29.78 in 10.0 mi SSE 12.7 mph - N/A   Partly Cloudy
11:53 AM 37.0 °F 29.3 °F 32.0 °F 82% 29.79 in 10.0 mi SSE 11.5 mph - N/A   Mostly Cloudy
12:42 PM 37.4 °F 30.8 °F 33.8 °F 87% 29.74 in 10.0 mi SE 9.2 mph - N/A   Partly Cloudy
12:53 PM 37.9 °F 30.9 °F 34.0 °F 86% 29.76 in 10.0 mi SE 10.4 mph - N/A   Partly Cloudy
1:53 PM 42.1 °F 37.1 °F 35.1 °F 76% 29.72 in 10.0 mi SE 8.1 mph - N/A   Clear
2:53 PM 44.1 °F 39.0 °F 34.0 °F 68% 29.70 in 10.0 mi SSE 9.2 mph - N/A   Clear
3:53 PM 43.0 °F 36.8 °F 34.0 °F 71% 29.68 in 10.0 mi SSE 11.5 mph - N/A   Clear
4:53 PM 41.0 °F 33.1 °F 33.1 °F 73% 29.67 in 10.0 mi SSE 15.0 mph 20.7 mph N/A   Clear
5:53 PM 41.0 °F 33.9 °F 35.1 °F 79% 29.66 in 10.0 mi SSE 12.7 mph - N/A   Clear
6:53 PM 42.1 °F 35.7 °F 37.0 °F 82% 29.65 in 10.0 mi SSE 11.5 mph 20.7 mph N/A   Clear
7:53 PM 41.0 °F 33.9 °F 37.0 °F 86% 29.62 in 10.0 mi SSE 12.7 mph - N/A   Mostly Cloudy
8:13 PM 41.0 °F 33.9 °F 37.4 °F 87% 29.61 in 10.0 mi SSE 12.7 mph - N/A   Mostly Cloudy
8:53 PM 39.9 °F 34.5 °F 37.0 °F 89% 29.62 in 10.0 mi SSE 8.1 mph - N/A   Mostly Cloudy
9:53 PM 39.9 °F 35.1 °F 37.0 °F 89% 29.62 in 10.0 mi SSE 6.9 mph - N/A   Overcast
10:53 PM 39.0 °F 32.8 °F 36.0 °F 89% 29.60 in 10.0 mi SSE 9.2 mph - N/A   Overcast
11:07 PM 39.2 °F 33.0 °F 35.6 °F 87% 29.58 in 10.0 mi SSE 9.2 mph - N/A   Overcast
11:53 PM 39.0 °F 33.4 °F 36.0 °F 89% 29.59 in 10.0 mi SSE 8.1 mph - N/A   Overcast